Weather in Krasnodarskoye

Russia / Altai Krai     52°06′58″N   83°47′41″E
temp.,
°C
wind,
m/s
gust,
m/s
humid.,
%
clouds,
%
prec.,
mm/h
press.,
hPa
HPBL,
m
7 march, sun
sun701:00−4ssw3775100 0.0 1019154
04:00−5sw31476100 0.0 1018383
07:00−5wsw41577100 0.0 1019453
10:00−3sw41481100 0.0 1020663
13:000wsw61279100 0.0 1021912
16:000w51081100 0.0 1021814
19:00−3w2289100 0.0 102235
22:00−5sse1286100 0.0 102321
8 march, mon
mon801:00−5se2287100 0.0 102221
04:00−6sse238498 0.0 102121
07:00−6sse337679 0.0 102023
10:00−3sse227483 0.0 101730
13:00+1s1110078 0.0 101650
16:00+3sw8188272 0.0 1015995
19:00+2sw8187486 0.0 1016990
22:00+1sw91878100 0.0 1017765
9 march, tue
tue901:000sw10179298 0.1 1021918
04:00−4wnw6109595 1.6 1024465
07:00−9wsw389498 1.8 1028280
10:00−8sw249072 0.0 1029201
13:00−4nw118947 0.1 1028275
16:00−3ene239596 0.2 1026233
19:00−3ene239895 0.3 102495
22:00−4sse2292100 0.0 102322
10 march, wed
wed1001:00−3sse338799 0.1 102129
04:00−4sse348361 0.0 101931
07:00−4sse337951 0.0 101925
10:00−2se238192 0.0 101749
13:00+1ese1210097 0.0 101446
16:00+1ese2210088 0.0 101134
19:00+1sse228290 0.0 100822
22:00+1s347988 0.0 100731
11 march, thu
thu1101:00+3sw5176794 0.0 1006677
04:00+2sw112096100 1.7 1008887
07:00−5wsw11198591 2.8 1014679
10:00−4sw9178140 0.0 1019685
13:00−1sw9147523 0.0 1019977
16:000wsw71474100 0.0 10181064
19:00−2wsw71774100 0.0 1019856
22:00−3sw101875100 0.0 1022925